Regional Weather Roundup
Issued by NWS

Home | Current Version | Previous Version | Graphics & Text | Print | Product List | Glossary Off
Versions: 1 2 3 4 5 6 7 8 9 10 11 12 13 14 15 16 17 18 19 20 21 22 23 24 25 26 27 28 29 30 31 32 33 34 35 36 37 38 39 40 41 42 43 44 45 46 47 48 49 50

000
ASUS43 KTOP 170759
RWRKS

WEATHER ROUNDUP FOR KANSAS
NATIONAL WEATHER SERVICE GOODLAND KS
200 AM CST SUN DEC 17 2017

NOTE:  "FAIR" INDICATES FEW OR NO CLOUDS BELOW 12,000 FEET WITH NO
SIGNIFICANT WEATHER AND/OR OBSTRUCTIONS TO VISIBILITY.

KSZ001>006-013>018-027>032-041>047-170900-
NORTHWEST KANSAS

CITY           SKY/WX    TMP DP  RH WIND       PRES   REMARKS
GOODLAND       CLOUDY    32  29  88 NE18G26   29.91S WCI  20
HAYS           CLOUDY    39  25  57 N6        29.87S
HILL CITY      CLOUDY    35  30  82 N9        29.90S
RUSSELL        CLOUDY    46  28  49 SW7       29.86R
$$

KSZ061>065-074>080-084>089-170900-
SOUTHWEST KANSAS

CITY           SKY/WX    TMP DP  RH WIND       PRES   REMARKS
DODGE CITY     PTCLDY    37  29  72 SE6       29.85F
GARDEN CITY    CLOUDY    41  24  51 S3        29.83R
GREAT BEND     LGT RAIN  47  31  53 S17G23    29.86S
LIBERAL        CLEAR     33  27  78 S9        29.80F
$$

KSZ066>073-081>083-090>101-170900-
SOUTHEAST KANSAS

CITY           SKY/WX    TMP DP  RH WIND       PRES   REMARKS
CHANUTE        LGT RAIN  44  42  93 S13       29.99F
COFFEYVILLE    RAIN      44  43  96 S7        30.02F FOG
HUTCHINSON     CLOUDY    43  41  93 SE9       29.90F
MEDICINE LODGE   N/A     44  38  79 S7        29.90R
NEWTON         CLOUDY    42  40  92 S16       29.93R
PARSONS        LGT RAIN  44  43  96 S9        30.02R
WICHITA INTL   CLOUDY    45  42  89 S15       29.93R
WICHITA JABRA  CLOUDY    43  42  97 S12       29.94R FOG
WICHITA MCCONL CLOUDY    43  41  92 S14       29.94S
WINFIELD       CLOUDY    44  43  96 S14       29.96S
$$

KSZ007>012-019>026-033>040-048>060-102>105-170900-
NORTHEAST KANSAS

CITY           SKY/WX    TMP DP  RH WIND       PRES   REMARKS
CONCORDIA      CLOUDY    38  27  64 CALM      29.89F
EMPORIA        LGT RAIN  42  40  92 S8        29.95F
LAWRENCE       CLOUDY    44  31  60 SE8       29.97S
MANHATTAN      CLOUDY    51  32  48 SW15      29.90F
OLATHE IND     CLOUDY    47  29  49 S10       29.98R
OLATHE EXE     CLOUDY    45  29  53 S8        29.98R
SALINA         CLOUDY    47  38  71 S17       29.88F
TOPEKA BILLARD CLOUDY    44  32  62 CALM      29.96S
TOPEKA FORBES  LGT RAIN  50  31  48 S15G21    29.94F
$$



USA.gov is the U.S. government's official web portal to all federal, state and local government web resources and services.